User: anonymous   Login
Location: Henry
(41.9986°N, 104.0474°W)
Time: 23:32:11
(UTC+00:00)
Language:

CAS-4A - Orbit

View from above orbital plane
View from above orbital plane
View from above satellite
View from above satellite

Ground track
Ground track

The orbit data is extracted from the following two-line orbital elements,

1 42761U 17034D   24349.15532919  .00037243  00000-0  86145-3 0  9998
2 42761  43.0178 278.9172 0014703 151.1720 208.9952 15.41725271415058
Epoch (UTC): 14 December 2024 03:43:40
Eccentricity: 0.0014703
inclination: 43.0178°
perigee height: 431 km
apogee height: 451 km
right ascension of ascending node: 278.9172°
argument of perigee: 151.1720°
revolutions per day: 15.41725271
mean anomaly at epoch: 208.9952°
orbit number at epoch: 41505

The dashed part of the orbit path shows where the satellite is in the earth's shadow,  

DLR